Location: Bolde?ti
(46.3833°N, 22.8667°E)
Time: 06:39:52
(UTC+00:00)

Daily predictions for brighter satellites

Satellite Brightness Start Highest point End
(mag) Time Altitude Azimuth Time Altitude Azimuth Time Altitude Azimuth
CENTAUR R/B 4.0 16:49:32 10° NNW 16:56:21 33° NNE 17:03:53 10° E
Okean-O 2.8 16:54:01 10° SSE 16:58:27 84° WSW 17:02:55 10° NNW
Okean 2 3.4 16:55:41 10° N 16:59:52 67° E 17:03:59 10° SSE
Cosmos 1544 3.1 16:56:37 10° S 17:00:17 88° W 17:03:58 10° N
ATLAS 3B R/B 4.4 16:57:51 10° NNW 17:02:33 19° NNE 17:07:20 10° ENE
CZ-2C R/B 3.2 17:01:16 10° SSW 17:02:40 12° S 17:04:02 10° SSE
Iridium 4 Rocket 3.5 16:59:27 10° S 17:04:21 74° E 17:09:46 10° N
SKYMED 2 4.4 17:03:09 10° N 17:07:26 56° WNW 17:11:40 10° SSW
YAOGAN 1 2.6 17:03:53 10° SSE 17:08:13 89° ENE 17:12:34 10° NNW
H-2A R/B 2.1 17:04:13 10° SE 17:09:00 53° ENE 17:13:56 10° N
GP-B 3.5 17:04:43 10° N 17:09:09 69° W 17:13:33 10° SSW
Cosmos 1975 2.8 17:05:49 10° S 17:09:54 79° E 17:14:00 10° NNE
SJ-11-01 4.4 17:06:52 10° SSE 17:11:30 59° ENE 17:16:08 10° N
CZ-4 R/B 2.0 17:10:32 10° S 17:14:44 65° WSW 17:18:55 10° NNW
Cosmos 1437 2.5 17:15:34 10° N 17:18:35 90° WSW 17:21:34 10° S
ISS -2.9 17:17:24 10° SSW 17:20:28 33° SE 17:23:10 12° E
Cosmos 1842 3.5 17:17:11 10° NNW 17:21:03 75° W 17:24:54 10° S
ARGOS 3.3 17:16:28 10° SE 17:21:40 54° ENE 17:26:54 10° N
CZ-2C R/B 3.5 17:20:04 10° NE 17:24:49 28° E 17:29:36 10° SSE
Cosmos 990 Rocket 4.4 17:20:01 10° SSW 17:25:06 66° WNW 17:30:15 10° NNE
Cosmos 1782 Rocket 3.7 17:24:16 10° S 17:28:40 84° W 17:33:09 10° N
Cosmos 1025 Rocket 3.6 17:24:37 10° N 17:28:41 37° ENE 17:32:46 10° SE
Cosmos 2233 Rocket 4.4 17:23:01 10° SSW 17:29:14 68° W 17:35:25 10° N
Cosmos 2151 Rocket 4.3 17:29:31 10° SSE 17:33:26 31° E 17:37:23 10° NNE
Cosmos 1707 2.8 17:29:58 10° N 17:33:45 55° ENE 17:37:31 10° SSE
NOSS 3-2 (A) 4.2 17:28:47 10° NW 17:36:01 57° NE 17:42:54 15° ESE
NOSS 2-2 (C) 3.0 17:32:47 10° SSW 17:36:13 60° SE 17:39:59 10° NE
Ariane Rocket 3.3 17:33:08 10° SE 17:37:57 46° ENE 17:42:47 10° N
CZ-2C R/B 3.5 17:32:53 10° S 17:38:04 69° WSW 17:43:38 10° NNW
Nadezhda 4 Rocket 4.3 17:32:39 10° N 17:38:29 43° ENE 17:44:16 10° SE
Cosmos 2263 Rocket 2.7 17:34:06 10° SW 17:39:37 65° WNW 17:45:12 10° NNE
SJ-6B 3.3 17:40:37 19° SE 17:42:48 35° ENE 17:46:15 10° N
USA 186 2.0 17:41:31 18° SE 17:43:33 45° ENE 17:46:40 10° N
Cosmos 2034 Rocket 4.3 17:37:48 10° SSE 17:43:48 46° E 17:49:49 10° NNE
CREW DRAGON DEMO-1 DEB 4.3 17:41:39 10° WNW 17:44:22 29° N 17:46:07 17° NE
Cosmos 1844 Rocket 3.2 17:41:35 10° SSE 17:46:32 34° ESE 17:51:32 10° NE
FREGAT/IRIS 3.0 17:49:42 31° ENE 17:49:42 31° ENE 17:52:02 10° N
Cosmos 2298 Rocket 4.2 17:45:05 10° S 17:50:09 47° ESE 17:55:16 10° NNE
HJ-1C 4.5 17:48:04 10° S 17:51:15 45° W 17:54:26 10° NNW
Cosmos 1975 Rocket 4.0 17:48:01 10° NNW 17:52:13 50° W 17:56:22 10° SSW
SPOT 3 Rocket 4.4 17:52:17 22° ESE 17:54:34 31° ENE 17:59:04 10° N
Cosmos 1943 4.4 17:51:06 10° NW 17:56:26 43° WSW 18:01:44 10° S
USA 234 3.8 17:51:34 10° ENE 17:57:31 36° SE 18:03:26 10° SSW
USA 102 3.0 17:53:50 14° SSE 17:59:43 83° WSW 18:00:29 44° NW
Cosmos 1867 3.9 17:58:24 10° NW 18:03:49 65° WSW 18:08:20 15° SSE
MetOp-A 4.1 18:01:37 17° SSE 18:05:45 63° ENE 18:11:03 10° N
Resurs 01 Rocket 2.7 18:05:19 26° ENE 18:05:51 26° ENE 18:09:34 10° N
Cosmos 1833 Rocket 4.3 18:04:11 10° N 18:08:01 18° NE 18:09:44 16° ENE
Cosmos 372 Rocket 4.0 18:04:38 10° SSW 18:09:53 83° WNW 18:15:09 10° NNE
Lacrosse 5 rocket 3.6 18:06:29 10° WNW 18:09:56 22° N 18:13:31 10° NE
IRS-1A Rocket 4.3 18:04:21 10° SSE 18:10:16 85° ENE 18:16:10 10° NNW
Meteor 1-15 Rocket 4.3 18:05:01 10° SSE 18:10:25 52° E 18:15:57 10° NNE
NOSS 3-2 (C) 4.2 18:03:32 10° NW 18:10:50 59° NE 18:15:36 27° ESE
MOS 1 Rocket 4.0 18:09:50 10° N 18:14:12 52° WNW 18:18:23 10° SSW
Meteor 1-12 Rocket 4.4 18:09:02 10° SSW 18:14:57 79° WNW 18:20:49 10° N
Cosmos 1634 Rocket 4.5 18:14:26 28° SE 18:16:33 36° E 18:22:08 10° NNE
OBJECT-B 1.2 18:19:21 47° NE 18:19:21 47° NE 18:22:07 10° N
DMSP B5D2-2 4.0 18:14:00 10° NNE 18:19:18 68° ESE 18:24:33 10° S
Cosmos 2150 Rocket 3.9 18:14:28 10° SSW 18:19:49 78° ESE 18:25:18 10° NNE
Cosmos 1626 3.7 18:19:33 10° NNE 18:21:30 22° NE 18:21:30 22° NE
ARIANE 5 R/B 4.0 18:23:29 22° NE 18:23:29 22° NE 18:26:20 10° NNE
Cosmos 2285 Rocket 4.1 18:17:11 10° S 18:23:13 51° ESE 18:29:20 10° NNE
Cosmos 1125 Rocket 3.5 18:22:40 10° S 18:27:53 62° ESE 18:33:09 10° NNE
Okean 2 Rocket 4.0 18:25:30 10° SSW 18:29:52 50° WNW 18:34:15 10° N
Okean 1 Rocket 3.1 18:31:11 54° ESE 18:31:39 58° E 18:36:05 10° NNE
Abrixas rocket 3.0 18:29:32 10° WNW 18:31:44 42° NW 18:31:44 42° NW
Cosmos 1092 Rocket 3.8 18:31:53 10° N 18:38:03 75° E 18:40:57 34° SSE
ATLAS 2AS CENTAUR R/B 3.4 18:31:23 10° S 18:38:32 39° ESE 18:45:43 10° NE
Meteor 2-13 Rocket 4.3 18:32:48 10° N 18:39:01 79° E 18:42:01 32° SSE
Cosmos 2195 Rocket 4.4 18:34:05 10° N 18:40:22 70° E 18:42:45 39° SSE
Meteor 2-5 Rocket 3.7 18:35:45 10° N 18:41:23 69° ENE 18:42:58 47° SE
Resurs 1-3 3.5 18:41:32 63° SSE 18:42:14 87° ENE 18:46:40 10° NNW
Cosmos 2026 Rocket 4.0 18:38:01 10° N 18:44:22 65° E 18:46:19 44° SE
CENTAUR R/B 3.1 18:40:10 10° NW 18:48:15 82° NE 18:51:58 40° SE
Cosmos 1805 3.6 18:49:00 58° N 18:49:00 58° N 18:52:12 10° N
BREEZE-M R/B 3.4 18:39:59 10° WSW 18:48:39 82° NNW 18:48:53 76° NE
H-2A R/B 4.4 18:45:05 10° SW 18:48:47 21° W 18:52:34 10° NW
Cosmos 2082 Rocket 3.7 18:45:54 10° N 18:50:07 21° NE 18:50:26 21° NE
Cosmos 1674 3.2 18:48:04 10° NNW 18:51:51 55° W 18:52:09 53° WSW
Meteor 1-22 Rocket 4.3 18:52:11 56° ESE 18:52:49 59° E 18:58:43 10° NNE
Exosat Rocket 3.5 18:49:16 10° SSW 18:54:55 89° WNW 18:59:56 10° NNE
ATLAS 3B R/B 3.4 18:48:47 10° NNW 18:55:11 41° NE 18:56:56 35° ENE
Cosmos 1428 Rocket 4.4 18:49:49 10° N 18:56:08 74° E 18:57:36 53° SSE
ISS -2.2 18:53:53 10° W 18:56:08 35° WNW 18:56:08 35° WNW
USA 238 DEB 4.1 18:52:17 10° NW 18:59:26 66° WSW 19:02:30 37° S
Cosmos 2279 Rocket 4.3 19:00:02 48° ENE 19:00:02 48° ENE 19:05:32 10° NNE
USA 238 4.1 18:52:23 10° NW 18:59:33 66° WSW 19:02:35 38° S
COSMOS 2406 3.6 18:55:34 10° NNW 19:01:03 47° ENE 19:01:06 47° ENE
CZ-2C R/B 3.8 18:57:01 10° NNE 19:00:45 62° NNE 19:00:45 62° NNE
SPOT 1/Viking Rocket 4.3 19:02:43 38° NE 19:02:43 38° NE 19:06:42 10° N
Cosmos 2142 Rocket 4.4 19:02:24 59° ESE 19:02:41 60° E 19:08:48 10° NNE
Meteor 1-24 Rocket 3.5 18:58:55 10° N 19:04:27 81° E 19:04:56 73° SE
CZ-2C R/B 3.7 19:00:01 10° N 19:05:16 46° WNW 19:10:35 10° SW
Cosmos 1269 Rocket 3.9 19:02:16 10° NNW 19:07:34 78° ENE 19:07:34 78° ENE
Spot 2 Rocket 4.1 19:10:54 45° NNE 19:10:54 45° NNE 19:14:51 10° N
MetOp-B 4.1 19:20:19 81° N 19:20:19 81° N 19:25:26 10° NNW
Cosmos 1844 4.2 19:15:51 10° SW 19:21:28 58° WNW 19:27:03 10° NNE
Terra 3.8 19:23:42 19° NNE 19:23:42 19° NNE 19:25:28 10° N
Cosmos 1844 Rocket 3.8 19:25:06 10° SW 19:30:20 41° NW 19:35:38 10° NNE
Lacrosse 4 Rocket 3.7 19:29:00 10° N 19:30:19 17° N 19:30:19 17° N
USA 234 3.3 19:37:13 29° NE 19:40:53 78° NW 19:47:25 10° WSW
Resurs 01 Rocket 3.1 19:42:53 33° WNW 19:42:53 33° WNW 19:46:19 10° NNW
SPOT 5 4.3 19:49:28 35° N 19:49:28 35° N 19:52:38 10° N
Lacrosse 5 rocket 3.7 19:46:44 10° NW 19:49:28 22° N 19:49:28 22° N
Cosmos 1833 Rocket 3.3 19:47:10 10° NNW 19:51:25 52° NNW 19:51:25 52° NNW
Cosmos 1655 Rocket 4.2 19:51:27 10° N 19:56:43 65° NNW 19:56:43 65° NNW
ATLAS 2AS CENTAUR R/B 3.3 20:21:26 10° SW 20:29:18 63° NW 20:37:08 10° NE
Cosmos 2082 Rocket 3.7 20:29:15 10° NNW 20:32:16 33° NNW 20:32:16 33° NNW
CENTAUR R/B 4.4 20:31:37 10° NW 20:38:32 30° WSW 20:39:10 30° WSW
ATLAS 3B R/B 3.6 20:39:26 10° NW 20:44:10 44° WNW 20:44:10 44° WNW
Terra 4.5 21:02:36 16° NNW 21:02:36 16° NNW 21:03:40 10° NNW
Cosmos 2278 Rocket 4.3 21:07:57 22° N 21:07:57 22° N 21:10:16 10° NNE
USA 234 4.4 21:17:25 10° NE 21:24:44 37° NW 21:29:25 10° W
SL-16 R/B 4.3 22:58:38 26° NNE 22:58:38 26° NNE 23:02:12 10° N
USA 234 4.5 22:59:42 10° ENE 23:12:14 - WNW 23:05:21 36° N
Cosmos 2227 Rocket 4.3 23:25:07 10° N 23:27:48 23° NNE 23:27:48 23° NNE
CZ-4C R/B 4.4 23:34:17 20° NNW 23:34:35 20° NNW 23:39:21 10° NNE
